This is the latest recevied weather packets stored in our database for station/object WB0RXX. If no packets are shown the sender has not sent any weather packets the latest 10 day(s).
| Time | Temp. | Humidity | Pressure | Rain* | Wind** | Luminosity | Snow |
|---|---|---|---|---|---|---|---|
| 1777577405 | 11.67° C | 47% | 1018.2 hPa | 0 mm | - | - | - |
| 1777576805 | 11.11° C | 45% | 1018.4 hPa | 0 mm | - | - | - |
| 1777576204 | 11.11° C | 47% | 1018.5 hPa | 0 mm | - | - | - |
| 1777575604 | 10.56° C | 50% | 1018.7 hPa | 0 mm | - | - | - |
| 1777575003 | 10.56° C | 51% | 1019 hPa | 0 mm | - | - | - |
| 1777574404 | 10° C | 51% | 1019.1 hPa | 0 mm | - | - | - |
| 1777573805 | 10° C | 51% | 1019.2 hPa | 0 mm | - | - | - |
| 1777573204 | 9.44° C | 53% | 1019.3 hPa | 0 mm | - | - | - |
| 1777572604 | 9.44° C | 53% | 1019.5 hPa | 0 mm | - | - | - |
| 1777572004 | 8.89° C | 51% | 1019.6 hPa | 0 mm | - | - | - |
| 1777571420 | 8.89° C | 55% | 1019.7 hPa | 0 mm | - | - | - |
| 1777570805 | 8.33° C | 56% | 1019.8 hPa | 0 mm | - | - | - |
| 1777570203 | 7.78° C | 53% | 1019.9 hPa | 0 mm | - | - | - |
| 1777569603 | 8.89° C | 54% | 1020 hPa | 0 mm | - | - | - |
| 1777569003 | 8.33° C | 54% | 1020.1 hPa | 0 mm | - | - | - |
| 1777568420 | 7.78° C | 55% | 1020 hPa | 0 mm | - | - | - |
| 1777567803 | 7.22° C | 55% | 1020.2 hPa | 0 mm | - | - | - |
| 1777567204 | 7.22° C | 57% | 1020.4 hPa | 0 mm | - | - | - |
| 1777566619 | 7.22° C | 56% | 1020.3 hPa | 0 mm | - | - | - |
| 1777566003 | 7.22° C | 56% | 1020.6 hPa | 0 mm | - | - | - |
| 1777565403 | 7.22° C | 55% | 1020.6 hPa | 0 mm | - | - | - |
| 1777564820 | 6.67° C | 57% | 1020.5 hPa | 0 mm | - | - | - |
| 1777564205 | 7.22° C | 55% | 1020.5 hPa | 0 mm | - | - | - |
| 1777563605 | 6.67° C | 60% | 1020.4 hPa | 0 mm | - | - | - |
| 1777563004 | 6.67° C | 57% | 1020.4 hPa | 0 mm | - | - | - |
* Rain latest hour (hover to see other rain measurements)
** Current wind speed in m/s (hover to see current wind gust speed)